SAS105 EDDP-EDDB

Flight info

Callsign SAS105
Flight time 0h 20m
Altitude 13000
Route PENEM1E/08R PENEM Y236 RUDAK T278 KLF
Aircraft B77W/H-SDE1E2E3FGHIJ2J3J4J5M1RWXY/LB1D1

Departure

Time 2026-05-07 19:59
Airport Leipzig/Halle Airport (EDDP)

Arrival

Time 2026-05-07 20:20
Airport Berlin Brandenburg Airport (EDDB)
Time Latitude Longitude Altitude Speed Heading
2026-05-07 19:40 51.41939 12.21669 428 ft 0 kts 15°
2026-05-07 19:51 51.41919 12.21660 427 ft 3 kts 15°
2026-05-07 19:51 51.41898 12.21651 430 ft 3 kts
2026-05-07 19:51 51.41877 12.21651 428 ft 3 kts 347°
2026-05-07 19:51 51.41865 12.21673 428 ft 3 kts 277°
2026-05-07 19:52 51.41865 12.21681 428 ft 0 kts 284°
2026-05-07 19:53 51.41872 12.21635 428 ft 11 kts 284°
2026-05-07 19:54 51.41904 12.21434 432 ft 22 kts 284°
2026-05-07 19:54 51.41947 12.21192 428 ft 23 kts 287°
2026-05-07 19:54 51.41988 12.20942 431 ft 19 kts 270°
2026-05-07 19:54 51.41913 12.20864 424 ft 14 kts 194°
2026-05-07 19:55 51.41806 12.20819 434 ft 23 kts 195°
2026-05-07 19:55 51.41613 12.20732 431 ft 30 kts 196°
2026-05-07 19:55 51.41464 12.20664 437 ft 4 kts 196°
2026-05-07 19:55 51.41459 12.20661 434 ft 0 kts 196°
2026-05-07 19:56 51.41455 12.20660 435 ft 4 kts 195°
2026-05-07 19:56 51.41431 12.20649 447 ft 0 kts 195°
2026-05-07 19:57 51.41391 12.20631 448 ft 19 kts 195°
2026-05-07 19:57 51.41209 12.20558 435 ft 25 kts 187°
2026-05-07 19:58 51.41159 12.20688 435 ft 16 kts 77°
2026-05-07 19:58 51.41170 12.20798 434 ft 0 kts 86°
2026-05-07 19:58 51.41171 12.20806 434 ft 6 kts 86°
2026-05-07 19:59 51.41183 12.21097 450 ft 62 kts 85°
2026-05-07 19:59 51.41245 12.22253 461 ft 144 kts 86°
2026-05-07 19:59 51.41333 12.24154 698 ft 185 kts 85°
2026-05-07 19:59 51.41421 12.26202 1678 ft 184 kts 84°
2026-05-07 20:00 51.41521 12.28253 2558 ft 186 kts 84°
2026-05-07 20:00 51.41629 12.30321 3387 ft 187 kts 84°
2026-05-07 20:00 51.41744 12.32444 4039 ft 200 kts 83°
2026-05-07 20:00 51.41878 12.34832 4344 ft 231 kts 84°
2026-05-07 20:01 51.42040 12.37479 4974 ft 243 kts 80°
2026-05-07 20:01 51.42704 12.39990 5664 ft 252 kts 52°
2026-05-07 20:01 51.44054 12.41851 6414 ft 261 kts 34°
2026-05-07 20:01 51.45422 12.43821 7107 ft 268 kts 50°
2026-05-07 20:02 51.46589 12.46167 8093 ft 269 kts 51°
2026-05-07 20:02 51.47777 12.48508 9078 ft 272 kts 51°
2026-05-07 20:02 51.48987 12.50871 10026 ft 276 kts 50°
2026-05-07 20:02 51.50230 12.53293 10705 ft 289 kts 50°
2026-05-07 20:03 51.51576 12.55919 10952 ft 319 kts 50°
2026-05-07 20:03 51.53052 12.58802 11193 ft 350 kts 50°
2026-05-07 20:03 51.54640 12.61909 11753 ft 369 kts 51°
2026-05-07 20:03 51.56294 12.65154 12601 ft 379 kts 51°
2026-05-07 20:04 51.57976 12.68458 13103 ft 387 kts 51°
2026-05-07 20:04 51.59708 12.71866 13081 ft 395 kts 51°
2026-05-07 20:04 51.61444 12.75283 13087 ft 394 kts 51°
2026-05-07 20:04 51.63152 12.78651 13094 ft 395 kts 51°
2026-05-07 20:05 51.64888 12.82081 13091 ft 395 kts 51°
2026-05-07 20:05 51.66626 12.85517 13089 ft 395 kts 51°
2026-05-07 20:05 51.68360 12.88952 13076 ft 395 kts 51°
2026-05-07 20:05 51.70096 12.92395 13079 ft 395 kts 51°
2026-05-07 20:06 51.71827 12.95831 13080 ft 395 kts 51°
2026-05-07 20:06 51.73576 12.99243 13074 ft 393 kts 48°
2026-05-07 20:06 51.75572 13.02193 13069 ft 384 kts 37°
2026-05-07 20:06 51.77824 13.04388 12965 ft 373 kts 25°
2026-05-07 20:07 51.80260 13.05700 12814 ft 366 kts 11°
2026-05-07 20:07 51.82772 13.06010 12599 ft 361 kts 357°
2026-05-07 20:07 51.85226 13.05258 12281 ft 360 kts 341°
2026-05-07 20:07 51.87496 13.03557 11934 ft 358 kts 332°
2026-05-07 20:08 51.89637 13.01617 11666 ft 356 kts 331°
2026-05-07 20:08 51.91796 12.99621 11553 ft 349 kts 330°
2026-05-07 20:08 51.93847 12.97715 11498 ft 341 kts 330°
2026-05-07 20:08 51.95842 12.95851 11359 ft 318 kts 330°
2026-05-07 20:09 51.97694 12.94115 11147 ft 297 kts 330°
2026-05-07 20:09 51.99456 12.92459 10880 ft 289 kts 330°
2026-05-07 20:09 52.01165 12.90852 10514 ft 280 kts 330°
2026-05-07 20:10 52.04509 12.87772 9416 ft 273 kts 339°
2026-05-07 20:10 52.06347 12.87230 8794 ft 269 kts
2026-05-07 20:10 52.08100 12.88094 8287 ft 262 kts 27°
2026-05-07 20:10 52.09699 12.89477 7758 ft 259 kts 30°
2026-05-07 20:11 52.11260 12.90911 7230 ft 257 kts 31°
2026-05-07 20:11 52.12806 12.92340 6744 ft 254 kts 31°
2026-05-07 20:11 52.14333 12.93758 6247 ft 251 kts 31°
2026-05-07 20:11 52.15845 12.95168 5742 ft 249 kts 31°
2026-05-07 20:12 52.17344 12.96569 5244 ft 247 kts 31°
2026-05-07 20:12 52.18833 12.97963 4754 ft 247 kts 31°
2026-05-07 20:12 52.20322 12.99359 4587 ft 250 kts 31°
2026-05-07 20:12 52.21838 13.00781 4554 ft 246 kts 31°
2026-05-07 20:13 52.23116 13.02558 4362 ft 243 kts 53°
2026-05-07 20:13 52.24051 13.04842 4277 ft 240 kts 56°
2026-05-07 20:13 52.24952 13.07105 4241 ft 237 kts 60°
2026-05-07 20:13 52.25645 13.09483 4223 ft 234 kts 67°
2026-05-07 20:14 52.26248 13.11967 4205 ft 231 kts 68°
2026-05-07 20:14 52.26811 13.14352 4128 ft 222 kts 68°
2026-05-07 20:14 52.27338 13.16577 3947 ft 200 kts 68°
2026-05-07 20:14 52.27823 13.18616 3648 ft 186 kts 69°
2026-05-07 20:15 52.28271 13.20500 3485 ft 169 kts 69°
2026-05-07 20:15 52.28679 13.22212 3347 ft 154 kts 68°
2026-05-07 20:15 52.29054 13.23788 3121 ft 143 kts 68°
2026-05-07 20:15 52.29399 13.25235 3017 ft 135 kts 69°
2026-05-07 20:16 52.29744 13.26683 2841 ft 138 kts 68°
2026-05-07 20:16 52.30088 13.28128 2637 ft 134 kts 68°
2026-05-07 20:16 52.30308 13.29054 2504 ft 131 kts 68°
2026-05-07 20:16 52.30634 13.30424 2327 ft 127 kts 68°
2026-05-07 20:17 52.30950 13.31750 2155 ft 124 kts 68°
2026-05-07 20:17 52.31265 13.33073 1996 ft 125 kts 68°
2026-05-07 20:17 52.31578 13.34389 1823 ft 123 kts 68°
2026-05-07 20:17 52.31885 13.35682 1648 ft 122 kts 68°
2026-05-07 20:18 52.32195 13.36984 1478 ft 124 kts 68°
2026-05-07 20:18 52.32511 13.38310 1317 ft 126 kts 68°
2026-05-07 20:18 52.32838 13.39686 1138 ft 134 kts 67°
2026-05-07 20:18 52.33179 13.41123 942 ft 135 kts 67°
2026-05-07 20:19 52.33528 13.42588 748 ft 143 kts 67°
2026-05-07 20:19 52.33889 13.44132 586 ft 148 kts 68°
2026-05-07 20:19 52.34271 13.45703 369 ft 148 kts 68°
2026-05-07 20:19 52.34651 13.47264 177 ft 147 kts 68°
2026-05-07 20:20 52.34974 13.48649 159 ft 106 kts 69°
2026-05-07 20:20 52.35172 13.49497 159 ft 54 kts 68°
2026-05-07 20:20 52.35277 13.49839 159 ft 30 kts 52°
2026-05-07 20:20 52.35431 13.50066 159 ft 30 kts 39°
2026-05-07 20:21 52.35478 13.50127 159 ft 2 kts 40°
2026-05-07 20:21 52.35487 13.50139 159 ft 2 kts 40°
2026-05-07 20:21 52.35497 13.50152 159 ft 2 kts 41°
2026-05-07 20:21 52.35502 13.50159 159 ft 2 kts 41°